Location: Igon
(43.1667°N, 0.2333°W)
Time: 03:16:40
(UTC+00:00)

FENGYUN 1C DEB - Visible Passes

Search period start: 15 June 2021 00:00
Search period end: 25 June 2021 00:00
Orbit: 619 x 836 km, 99.6° (Epoch: 13 June)

Date Brightness Start Highest point End Pass type
(mag) Time Alt. Az. Time Alt. Az. Time Alt. Az.
15 Jun ? 21:23:55 15° S 21:27:19 53° WSW 21:31:39 10° NNW visible
16 Jun ? 20:35:33 10° SE 20:39:37 47° ENE 20:43:53 10° N visible
16 Jun ? 22:15:19 10° SW 22:18:02 16° W 22:20:48 10° NW visible
17 Jun ? 21:26:34 15° S 21:29:57 51° WSW 21:34:19 10° NNW visible
18 Jun ? 20:38:12 11° SE 20:42:14 49° ENE 20:46:35 10° N visible
18 Jun ? 22:18:02 10° SW 22:20:41 16° W 22:23:25 10° NW visible
19 Jun ? 21:29:14 15° S 21:32:36 50° WSW 21:36:59 10° NNW visible
20 Jun ? 20:40:51 11° SE 20:44:52 51° ENE 20:49:17 10° N visible
20 Jun ? 22:20:44 10° SW 22:23:21 16° W 22:26:02 10° NW visible
21 Jun ? 21:31:53 15° S 21:35:14 48° W 21:39:39 10° NNW visible
22 Jun ? 20:43:31 12° SE 20:47:30 53° ENE 20:51:59 10° N visible
22 Jun ? 22:23:26 10° SW 22:26:01 15° W 22:28:39 10° NW visible
23 Jun ? 21:34:33 16° S 21:37:53 47° W 21:42:20 10° NNW visible
24 Jun ? 20:46:10 12° SE 20:50:09 55° ENE 20:54:42 10° N visible
24 Jun ? 22:26:08 10° SW 22:28:40 15° W 22:31:17 10° WNW visible
